{"data":{"norad_id":44495,"epoch":"2026-05-25T03:20:06.948384Z","epoch_age_seconds":73094,"freshness":"FRESH","line1":"1 44495U 19054A   26145.13896931  .00138782  00000+0  69389-3 0  9999","line2":"2 44495  44.9963  66.4062 0009257 161.5875 198.5364 15.80643697376082","mean_motion":15.80643697,"eccentricity":0.0009257,"inclination_deg":44.9963,"raan_deg":66.4062,"arg_perigee_deg":161.5875,"mean_anomaly_deg":198.5364,"bstar":0.00069389,"rev_number":37608,"period_min":91.10212521222,"perigee_km":322.41074544739,"apogee_km":334.82763385691,"semimajor_km":6706.7561896522,"source":"CELESTRAK","updated_at":"2026-05-25T13:37:55.996862Z"}}